Flag for Saint Vincent and Grenadines Weather past 2 weeks in Kingstown, Saint Vincent and Grenadines

Now
84 °F

Scattered clouds.


Feels Like: 90 °F
Forecast: 79 / 85 °F
Wind: 15 mph from Southeast

Location: Arnos Vale

Current Time: May 27, 2015 at 10:54:14 AM

Latest Report: May 27, 2015 at 10:00 AM


Visibility: N/A

Pressure: 29.98 "Hg

Humidity: 66%

Dew point: 72 °F

Location of KingstownLocation

Historic Weather in Kingstown — Graph

°F

Kingstown temperature yesterday

Maximum temperature yesterday: 86 °F (at 12:00 PM)
Minimum temperature yesterday: 77 °F (at 6:00 AM)
Average temperature yesterday: 83 °F

Past Weeks' High & Low Weather Summary

 TemperatureHumidityPressure
High88 °F (May 12, 1:00 PM)100% (May 22, 10:00 PM)30.09 "Hg (May 22, 10:00 PM)
Low73 °F (May 22, 10:00 PM)55% (May 16, 12:00 PM)29.95 "Hg (May 12, 3:00 PM)
Average83 °F71%30.01 "Hg
* Reported May 12 9:00 AM — May 27 9:00 AM, Kingstown, Weather by CustomWeather, © 2015

Note: Actual official high and low records may vary slightly from our data, if they occured in-between our weather recording intervals... More about our weather records

Advertising

Kingstown weather history for previous 24 hours

 ConditionsComfort  
Time TempWeatherWind HumidityBarometerVisibility
9:00 AM
Wed, May 27
84 °FScattered clouds.14 mph62%29.98 "HgN/A
8:00 AM82 °FScattered clouds.13 mph66%29.98 "HgN/A
7:00 AM81 °FPartly sunny.7 mph74%29.95 "HgN/A
6:00 AM77 °FPartly sunny.No wind79%29.95 "HgN/A
11:00 PM
Tue, May 26
81 °FPassing clouds.6 mph79%30.01 "HgN/A
10:00 PM81 °FPassing clouds.6 mph79%30.01 "HgN/A
9:00 PM81 °FPassing clouds.6 mph74%29.98 "HgN/A
8:00 PM81 °FPassing clouds.6 mph74%29.98 "HgN/A
7:00 PM81 °FPassing clouds.No wind74%29.98 "HgN/A
6:00 PM82 °FScattered clouds.8 mph70%29.98 "HgN/A
5:00 PM84 °FScattered clouds.12 mph62%29.95 "HgN/A
4:00 PM84 °FScattered clouds.12 mph62%29.95 "HgN/A
3:00 PM86 °FScattered clouds.13 mph59%29.95 "HgN/A
2:00 PM86 °FScattered clouds.13 mph59%29.98 "HgN/A
1:00 PM86 °FScattered clouds.13 mph59%29.98 "HgN/A
12:00 PM86 °FPassing clouds.14 mph59%30.01 "HgN/A
11:00 AM84 °FPassing clouds.14 mph62%30.01 "HgN/A
10:00 AM84 °FPassing clouds.14 mph66%30.04 "HgN/A
Weather by CustomWeather, © 2015

See weather overviewHow to use our weather pages